Home > Weather > Modesto > Past weeks

Flag for U.S.A. Weather for the Past 2 Weeks in Modesto, California, U.S.A.

Now
64 °F

Clear.


Feels Like: 64 °F
Forecast: 49 / 70 °F
Wind: 6 mph from Northwest

Location: Modesto City-County-Sham Field

Current Time: Feb 12, 2016 at 7:42:53 PM

Latest Report: Feb 12, 2016 at 5:53 PM


Visibility: 7 mi

Pressure: 30.15 "Hg

Humidity: 65%

Dew point: 52 °F

Location of ModestoLocation

Historic Weather in Modesto — Graph

°F

Modesto Temperature Yesterday

Maximum temperature yesterday: 72 °F (at 1:53 PM)
Minimum temperature yesterday: 44 °F (at 3:03 AM)
Average temperature yesterday: 57 °F

High & Low Weather Summary for the Past Weeks

 TemperatureHumidityPressure
High72 °F (Feb 8, 2:53 PM)97% (Jan 30, 1:53 AM)30.49 "Hg (Jan 30, 1:53 AM)
Low35 °F (Feb 3, 6:53 AM)28% (Feb 1, 3:53 PM)29.71 "Hg (Jan 31, 2:53 PM)
Average52 °F74%30.21 "Hg
* Reported Jan 28 5:53 PM — Feb 12 5:53 PM, Modesto, Weather by CustomWeather, © 2016

Note: Actual official high and low records may vary slightly from our data, if they occured in-between our weather recording intervals... More about our weather records

Advertising

Modesto Weather History for the Previous 24 Hours

 ConditionsComfort  
Time TempWeatherWind HumidityBarometerVisibility
5:53 PM
Fri, Feb 12
64 °FClear.6 mph65%30.15 "Hg7 mi
4:53 PM68 °FSunny.9 mph61%30.14 "Hg6 mi
3:53 PM70 °FSunny.8 mph53%30.14 "Hg8 mi
2:53 PM70 °FSunny.8 mph55%30.14 "Hg8 mi
1:53 PM68 °FSunny.9 mph59%30.16 "Hg7 mi
12:53 PM68 °FSunny.9 mph59%30.18 "Hg8 mi
11:53 AM66 °FSunny.9 mph63%30.20 "Hg8 mi
10:53 AM63 °FSunny.10 mph65%30.22 "Hg7 mi
9:53 AM60 °FSunny.3 mph72%30.22 "Hg5 mi
8:53 AM52 °FFog.No wind93%30.22 "Hg3 mi
7:53 AM46 °FFog.No wind96%30.21 "Hg1 mi
6:53 AM43 °FFog.3 mph97%30.20 "Hg1 mi
5:53 AM45 °FFog.No wind93%30.18 "Hg1 mi
5:00 AM47 °FFog.No wind90%30.18 "Hg4 mi
3:53 AM49 °FFog.No wind90%30.17 "Hg0 mi
3:00 AM48 °FFog.No wind96%30.18 "Hg2 mi
1:53 AM49 °FFog.No wind93%30.18 "Hg2 mi
12:53 AM53 °FFog.No wind89%30.17 "Hg3 mi
12:01 AM51 °FFog.No wind89%30.17 "Hg3 mi
10:53 PM
Thu, Feb 11
54 °FFog.No wind90%30.16 "Hg3 mi
9:53 PM56 °FClear.No wind84%30.16 "Hg5 mi
8:53 PM58 °FClear.No wind78%30.15 "Hg5 mi
7:53 PM62 °FClear.No wind70%30.14 "Hg6 mi
Weather by CustomWeather, © 2016

See weather overviewHow to use our weather pages